Teterboro, NJ

4:03 PM EST on November 13, 2019 (GMT -0500)
Teterboro

Weather History for KTEB - September, 2019

Change the Weather History Date:

Tuesday, September 17, 2019

  Actual Average Record
Temperature  
Mean Temperature 68 °F -  
Max Temperature 78 °F 75 °F 93 °F (1991)
Min Temperature 59 °F 56 °F 46 °F (2007)
Cooling Degree Days 4    
Growing Degree Days 18 (Base 50)    
Moisture  
Dew Point 46 °F    
Average Humidity 49    
Maximum Humidity 78    
Minimum Humidity 24    
Precipitation  
Precipitation 0.00 in - - ()
Sea Level Pressure  
Sea Level Pressure 30.11 in    
Wind  
Wind Speed 5 mph ()    
Max Wind Speed 12 mph    
Max Gust Speed 20 mph    
Visibility 10.0 miles    
Events      
Averages and records for this station are not official NWS values.
T = Trace of Precipitation, MM = Missing Value Source: Averaged Metar Reports

Daily Weather History Graph

Daily Weather History Graph

Search for Another Location

Airport or City:

Astronomy

Sep. 17, 2019 Rise Set
Actual Time 6:38 AM EDT 7:02 PM EDT
Civil Twilight 6:11 AM EDT 7:29 PM EDT
Nautical Twilight 5:38 AM EDT 8:02 PM EDT
Astronomical Twilight 5:05 AM EDT 8:35 PM EDT
Moon 9:02 PM EDT (9/17) 9:41 AM EDT (9/17)
Length of Visible Light 13h 18m
Length of Day
12h 23m
Waning Gibbous, 89% of the Moon is Illuminated
Sep 17
Waning Gibbous
Sep 21
Last Quarter
Sep 28
New
Oct 5
First Quarter
Oct 13
Full

Hourly Weather History & Observations

Time (EDT) Temp. Dew Point Humidity Pressure Visibility Wind Dir Wind Speed Gust Speed Precip Events Conditions
12:51 AM 68.0 °F 55.9 °F 65% 30.06 in 10.0 mi NNE 4.6 mph - N/A   Scattered Clouds
1:51 AM 66.0 °F 57.9 °F 75% 30.07 in 10.0 mi NNE 3.5 mph - N/A   Mostly Cloudy
2:51 AM 64.9 °F 57.9 °F 78% 30.08 in 10.0 mi NNE 3.5 mph - N/A   Mostly Cloudy
3:51 AM 64.0 °F 55.0 °F 73% 30.08 in 10.0 mi NNE 3.5 mph - N/A   Mostly Cloudy
4:51 AM 61.0 °F 53.1 °F 75% 30.09 in 10.0 mi North 4.6 mph - N/A   Clear
5:51 AM 61.0 °F 52.0 °F 72% 30.10 in 10.0 mi NNE 4.6 mph - N/A   Clear
6:51 AM 59.0 °F 52.0 °F 78% 30.13 in 10.0 mi North 4.6 mph - N/A   Clear
7:51 AM 62.1 °F 52.0 °F 70% 30.14 in 10.0 mi NNE 5.8 mph - N/A   Clear
8:51 AM 64.9 °F 50.0 °F 58% 30.15 in 10.0 mi North 8.1 mph - N/A   Clear
10:51 AM 71.1 °F 46.0 °F 41% 30.16 in 10.0 mi Variable 6.9 mph - N/A   Clear
11:51 AM 73.0 °F 46.0 °F 38% 30.14 in 10.0 mi Calm Calm - N/A   Clear
12:51 PM 75.0 °F 42.1 °F 31% 30.13 in 10.0 mi North 8.1 mph - N/A   Clear
1:51 PM 77.0 °F 41.0 °F 28% 30.11 in 10.0 mi NNE 10.4 mph - N/A   Clear
2:51 PM 77.0 °F 39.0 °F 25% 30.09 in 10.0 mi NE 11.5 mph - N/A   Clear
3:51 PM 78.1 °F 37.9 °F 24% 30.09 in 10.0 mi NNE 11.5 mph 19.6 mph N/A   Clear
4:51 PM 77.0 °F 37.9 °F 24% 30.08 in 10.0 mi NNE 8.1 mph - N/A   Clear
5:51 PM 75.9 °F 39.9 °F 27% 30.08 in 10.0 mi ENE 5.8 mph - N/A   Clear
6:51 PM 73.0 °F 35.1 °F 25% 30.10 in 10.0 mi NE 9.2 mph - N/A   Clear
7:51 PM 70.0 °F 39.0 °F 32% 30.12 in 10.0 mi NNE 6.9 mph - N/A   Clear
8:51 PM 68.0 °F 41.0 °F 37% 30.13 in 10.0 mi North 3.5 mph - N/A   Clear
9:51 PM 66.0 °F 43.0 °F 43% 30.14 in 10.0 mi North 3.5 mph - N/A   Clear
10:51 PM 64.9 °F 43.0 °F 45% 30.15 in 10.0 mi NNE 4.6 mph - N/A   Clear
11:51 PM 62.1 °F 44.1 °F 52% 30.15 in 10.0 mi NNE 4.6 mph - N/A   Clear